User: anonymous   Login
Location: Unspecified
(0.0000°N, 0.0000°E)
Time: 23:03:57
(UTC+00:00)
Language:

STARLINK-35078 - Orbit

View from above orbital plane
View from above orbital plane
View from above satellite
View from above satellite

Ground track
Ground track

The orbit is defined by the following mean orbital elements,

1 65523U          26145.14283852 +.00000000 +00000-0 +22463-3 0 00005
2 65523  97.4497 214.7688 0001446 207.2327 152.8825 15.05645620    02
Epoch (UTC): 25 May 2026 03:25:41
Eccentricity: 0.0001446
inclination: 97.4497°
perigee height: 549 km
apogee height: 551 km
right ascension of ascending node: 214.7688°
argument of perigee: 207.2327°
revolutions per day: 15.05645620
mean anomaly at epoch: 152.8825°

The dashed part of the orbit path shows where the satellite is in the earth's shadow,  

DLR